Location: ???? ???? ?????
(31.2680°N, 31.7283°E)
Time: 19:00:27
(UTC+00:00)

Cosmos 1802 Rocket - Pass Details

Date: 13 July 2020
Orbit: 954 x 1011 km, 82.9° (Epoch: 05 August)

Event Time Altitude Azimuth Distance (km) Brightness Sun altitude
Exits shadow 23:18:11 64° 35° (NE) 1,107 4.3 -33.8°
Drops below altitude 10° 23:23:38 10° 9° (N) 2,790 7.2 -33.3°
Sets 23:26:11 0° 8° (N) 3,746 8.1 -33.1°
